Location: Barcelona
(41.3830°N, 2.1830°E)
Time: 21:20:08
(UTC+01:00)

ISS - Pass Details

Date: 26 February 2021
Orbit: 417 x 422 km, 51.6° (Epoch: 26 February)

Event Time Altitude Azimuth Distance (km) Brightness Sun altitude
Exits shadow 05:37:43 30° 10° (N) 781 -2.3 -21.9°
Drops below altitude 10° 05:39:56 10° 42° (NE) 1,498 -0.3 -21.5°
Sets 05:42:08 0° 51° (NE) 2,364 1.0 -21.0°
